{"data":{"norad_id":66137,"intl_designator":"2025-237Z","name":"STARLINK-35576","alt_names":[],"object_type":"PAYLOAD","status":"ACTIVE","operator":null,"country":"US","launch_date":"2025-10-22","launch_site_code":"AFWTR","launch_vehicle":null,"mission":null,"orbit_class":"UNKNOWN","rcs_meters":null,"size_class":null,"mass_kg":null,"dimensions":null,"purposes":["comms"],"wikipedia_slug":null,"has_3d_model":false,"image_url":null,"decayed_at":null,"tle_current":{"epoch":"2026-05-24T23:18:06.141024Z","epoch_age_seconds":77906,"freshness":"FRESH","line1":"1 66137U 25237Z   26144.97090441  .00010557  00000+0  36795-3 0  9993","line2":"2 66137  53.1602  45.0040 0001233 102.9824 257.1314 15.30208008 34298","mean_motion":15.30208008,"eccentricity":0.0001233,"inclination_deg":53.1602,"raan_deg":45.004,"arg_perigee_deg":102.9824,"mean_anomaly_deg":257.1314,"bstar":0.00036795,"rev_number":3429,"period_min":94.104853227248,"perigee_km":474.34614371704,"apogee_km":476.03617444107,"semimajor_km":6853.3281590791,"source":"CELESTRAK","updated_at":"2026-05-25T13:38:21.066959Z"}}}